JAL212 RJBD-RJTT

Flight info

Callsign JAL212
Flight time 0h 49m
Altitude 27000
Route KEC Y43 MENUR Y21 AKSEL
Aircraft B738/M-SDE2E3FGHIRWXY/LB1

Departure

Time 2026-04-22 16:11
Airport Nanki Shirahama Airport (RJBD)

Arrival

Time 2026-04-22 17:00
Airport Tokyo Haneda International Airport (RJTT)
Time Latitude Longitude Altitude Speed Heading
2026-04-22 15:56 33.66277 135.36092 312 ft 0 kts 231°
2026-04-22 16:03 33.66279 135.36095 311 ft 1 kts 231°
2026-04-22 16:03 33.66288 135.36108 310 ft 2 kts 230°
2026-04-22 16:03 33.66298 135.36122 309 ft 2 kts 251°
2026-04-22 16:04 33.66299 135.36140 308 ft 2 kts 282°
2026-04-22 16:04 33.66293 135.36157 307 ft 1 kts 312°
2026-04-22 16:04 33.66288 135.36163 307 ft 1 kts 326°
2026-04-22 16:04 33.66285 135.36166 306 ft 0 kts 320°
2026-04-22 16:06 33.66291 135.36162 307 ft 4 kts 326°
2026-04-22 16:06 33.66333 135.36175 304 ft 9 kts 47°
2026-04-22 16:06 33.66383 135.36247 298 ft 8 kts 49°
2026-04-22 16:07 33.66443 135.36244 297 ft 9 kts 325°
2026-04-22 16:07 33.66497 135.36195 300 ft 13 kts 320°
2026-04-22 16:07 33.66625 135.36072 307 ft 30 kts 321°
2026-04-22 16:07 33.66783 135.35919 312 ft 27 kts 320°
2026-04-22 16:08 33.66856 135.35828 314 ft 11 kts 291°
2026-04-22 16:08 33.66896 135.35774 314 ft 3 kts 12°
2026-04-22 16:08 33.66899 135.35803 313 ft 5 kts 122°
2026-04-22 16:08 33.66885 135.35818 313 ft 0 kts 140°
2026-04-22 16:10 33.66817 135.35884 313 ft 46 kts 141°
2026-04-22 16:10 33.66345 135.36343 291 ft 127 kts 141°
2026-04-22 16:10 33.65492 135.37170 405 ft 177 kts 141°
2026-04-22 16:11 33.64543 135.38084 1522 ft 177 kts 140°
2026-04-22 16:11 33.63658 135.39000 2410 ft 175 kts 135°
2026-04-22 16:11 33.62962 135.40263 2939 ft 192 kts 116°
2026-04-22 16:11 33.62392 135.41757 3529 ft 205 kts 117°
2026-04-22 16:12 33.61692 135.43361 4015 ft 227 kts 120°
2026-04-22 16:12 33.60883 135.45077 4613 ft 246 kts 120°
2026-04-22 16:12 33.60026 135.46889 5252 ft 262 kts 120°
2026-04-22 16:12 33.59109 135.48842 5927 ft 277 kts 120°
2026-04-22 16:13 33.58167 135.50864 6814 ft 282 kts 121°
2026-04-22 16:13 33.57211 135.52918 7709 ft 287 kts 121°
2026-04-22 16:13 33.56238 135.54994 8569 ft 292 kts 121°
2026-04-22 16:13 33.55240 135.57127 9430 ft 296 kts 121°
2026-04-22 16:14 33.54226 135.59294 10248 ft 302 kts 122°
2026-04-22 16:14 33.53181 135.61525 10795 ft 317 kts 122°
2026-04-22 16:14 33.52072 135.63886 11318 ft 333 kts 122°
2026-04-22 16:14 33.50934 135.66310 11974 ft 342 kts 123°
2026-04-22 16:15 33.49765 135.68811 12730 ft 348 kts 123°
2026-04-22 16:15 33.48578 135.71350 13544 ft 351 kts 123°
2026-04-22 16:15 33.47380 135.73906 14188 ft 359 kts 124°
2026-04-22 16:15 33.46192 135.76552 14875 ft 367 kts 120°
2026-04-22 16:16 33.45323 135.79469 15533 ft 379 kts 104°
2026-04-22 16:16 33.45249 135.82625 16151 ft 391 kts 83°
2026-04-22 16:16 33.45800 135.85851 16701 ft 400 kts 77°
2026-04-22 16:16 33.46498 135.89070 17350 ft 403 kts 75°
2026-04-22 16:17 33.47225 135.92351 17882 ft 411 kts 75°
2026-04-22 16:17 33.47926 135.95630 18516 ft 414 kts 76°
2026-04-22 16:17 33.48619 135.99022 19179 ft 418 kts 76°
2026-04-22 16:17 33.49285 136.02370 19711 ft 424 kts 77°
2026-04-22 16:18 33.49962 136.05829 20311 ft 427 kts 76°
2026-04-22 16:18 33.50644 136.09331 20829 ft 433 kts 77°
2026-04-22 16:18 33.51328 136.12826 21363 ft 437 kts 76°
2026-04-22 16:18 33.52017 136.16347 21944 ft 439 kts 76°
2026-04-22 16:19 33.52724 136.19969 22377 ft 446 kts 77°
2026-04-22 16:19 33.53426 136.23566 22910 ft 449 kts 76°
2026-04-22 16:19 33.54136 136.27206 23477 ft 451 kts 76°
2026-04-22 16:19 33.54853 136.30928 23856 ft 459 kts 76°
2026-04-22 16:20 33.55563 136.34639 24368 ft 462 kts 76°
2026-04-22 16:20 33.56282 136.38364 24872 ft 465 kts 75°
2026-04-22 16:20 33.57011 136.42160 25289 ft 470 kts 75°
2026-04-22 16:20 33.57733 136.45964 25915 ft 469 kts 76°
2026-04-22 16:21 33.58468 136.49820 26160 ft 479 kts 76°
2026-04-22 16:21 33.59206 136.53676 26765 ft 477 kts 75°
2026-04-22 16:21 33.59945 136.57579 27199 ft 481 kts 76°
2026-04-22 16:21 33.60683 136.61481 27553 ft 486 kts 74°
2026-04-22 16:22 33.62191 136.69394 28372 ft 491 kts 76°
2026-04-22 16:22 33.62949 136.73364 28762 ft 494 kts 75°
2026-04-22 16:22 33.63715 136.77373 28973 ft 499 kts 75°
2026-04-22 16:23 33.65257 136.85486 28995 ft 498 kts 75°
2026-04-22 16:23 33.66776 136.93561 28995 ft 495 kts 75°
2026-04-22 16:24 33.69044 137.05656 28986 ft 495 kts 75°
2026-04-22 16:25 33.70504 137.13684 28992 ft 497 kts 76°
2026-04-22 16:25 33.72729 137.25835 28986 ft 493 kts 75°
2026-04-22 16:26 33.74217 137.33911 28998 ft 498 kts 75°
2026-04-22 16:26 33.75687 137.41988 28991 ft 494 kts 75°
2026-04-22 16:27 33.77167 137.50072 29000 ft 498 kts 75°
2026-04-22 16:27 33.78674 137.58147 28995 ft 495 kts 75°
2026-04-22 16:28 33.80136 137.66214 28996 ft 495 kts 76°
2026-04-22 16:28 33.81589 137.74239 29003 ft 497 kts 75°
2026-04-22 16:29 33.83067 137.82356 29002 ft 494 kts 75°
2026-04-22 16:29 33.84504 137.90381 29005 ft 498 kts 76°
2026-04-22 16:30 33.85936 137.98520 28999 ft 498 kts 76°
2026-04-22 16:30 33.87358 138.06590 28993 ft 496 kts 75°
2026-04-22 16:31 33.88810 138.14708 28990 ft 498 kts 76°
2026-04-22 16:31 33.90286 138.22858 28994 ft 498 kts 74°
2026-04-22 16:32 33.92362 138.30692 28995 ft 492 kts 62°
2026-04-22 16:32 33.95389 138.38057 28996 ft 490 kts 57°
2026-04-22 16:33 33.98689 138.45209 28993 ft 487 kts 56°
2026-04-22 16:33 34.01958 138.52341 28998 ft 490 kts 57°
2026-04-22 16:34 34.05199 138.59538 29000 ft 490 kts 57°
2026-04-22 16:34 34.08390 138.66745 29001 ft 489 kts 58°
2026-04-22 16:35 34.11557 138.73940 29000 ft 490 kts 58°
2026-04-22 16:35 34.14769 138.81218 29002 ft 489 kts 57°
2026-04-22 16:36 34.17968 138.88495 29003 ft 489 kts 58°
2026-04-22 16:36 34.21144 138.95744 29006 ft 490 kts 58°
2026-04-22 16:37 34.24313 139.02988 29007 ft 491 kts 58°
2026-04-22 16:37 34.27493 139.10255 29008 ft 492 kts 58°
2026-04-22 16:38 34.30484 139.17667 29005 ft 493 kts 63°
2026-04-22 16:38 34.33089 139.25304 29007 ft 491 kts 65°
2026-04-22 16:39 34.35638 139.33008 29014 ft 495 kts 65°
2026-04-22 16:39 34.38218 139.40698 29014 ft 494 kts 64°
2026-04-22 16:40 34.40808 139.48332 29011 ft 493 kts 64°
2026-04-22 16:41 34.44757 139.59854 29018 ft 497 kts 63°
2026-04-22 16:41 34.47511 139.67467 29021 ft 491 kts 59°
2026-04-22 16:41 34.49331 139.70978 29021 ft 485 kts 45°
2026-04-22 16:42 34.51671 139.73810 29023 ft 471 kts 31°
2026-04-22 16:42 34.57072 139.78113 29024 ft 463 kts 24°
2026-04-22 16:43 34.62609 139.82101 29029 ft 465 kts 22°
2026-04-22 16:43 34.65396 139.84004 29018 ft 452 kts 18°
2026-04-22 16:43 34.68177 139.85529 29002 ft 431 kts 12°
2026-04-22 16:43 34.70967 139.86742 28782 ft 417 kts
2026-04-22 16:44 34.73693 139.87752 28161 ft 411 kts
2026-04-22 16:44 34.76463 139.88686 27153 ft 416 kts
2026-04-22 16:44 34.79274 139.89578 25940 ft 425 kts
2026-04-22 16:44 34.82129 139.90475 24731 ft 432 kts
2026-04-22 16:45 34.85075 139.91419 23505 ft 440 kts
2026-04-22 16:45 34.87988 139.92584 22373 ft 448 kts 15°
2026-04-22 16:45 34.90802 139.94253 21292 ft 456 kts 25°
2026-04-22 16:45 34.91961 139.95146 20825 ft 459 kts 29°
2026-04-22 16:46 34.93810 139.96800 20053 ft 461 kts 34°
2026-04-22 16:46 34.96214 139.99335 18977 ft 463 kts 39°
2026-04-22 16:46 34.98552 140.02002 17944 ft 459 kts 38°
2026-04-22 16:46 35.01000 140.04414 17104 ft 448 kts 30°
2026-04-22 16:47 35.03622 140.06262 16376 ft 432 kts 21°
2026-04-22 16:47 35.06372 140.07681 15661 ft 418 kts 16°
2026-04-22 16:47 35.09059 140.08841 14952 ft 407 kts 14°
2026-04-22 16:47 35.11690 140.09915 14235 ft 398 kts 14°
2026-04-22 16:48 35.14305 140.11014 13507 ft 390 kts 15°
2026-04-22 16:48 35.16791 140.12117 12832 ft 381 kts 16°
2026-04-22 16:48 35.19230 140.13248 12213 ft 370 kts 17°
2026-04-22 16:48 35.20368 140.13788 11921 ft 366 kts 17°
2026-04-22 16:49 35.21607 140.14380 11587 ft 359 kts 17°
2026-04-22 16:49 35.23914 140.15488 10954 ft 352 kts 18°
2026-04-22 16:49 35.26175 140.16579 10334 ft 345 kts 18°
2026-04-22 16:49 35.28349 140.17629 9729 ft 338 kts 18°
2026-04-22 16:50 35.30526 140.18680 9179 ft 330 kts 19°
2026-04-22 16:50 35.32613 140.19687 8897 ft 321 kts 18°
2026-04-22 16:50 35.34674 140.20685 8507 ft 318 kts 19°
2026-04-22 16:50 35.36754 140.21625 8115 ft 314 kts 13°
2026-04-22 16:51 35.38835 140.22093 7922 ft 300 kts 358°
2026-04-22 16:51 35.40875 140.21960 7807 ft 285 kts 350°
2026-04-22 16:51 35.42805 140.21639 7686 ft 273 kts 349°
2026-04-22 16:51 35.44641 140.21347 7556 ft 264 kts 350°
2026-04-22 16:52 35.46466 140.21112 7216 ft 264 kts 351°
2026-04-22 16:52 35.48305 140.20912 6808 ft 267 kts 352°
2026-04-22 16:52 35.50187 140.20715 6116 ft 279 kts 353°
2026-04-22 16:52 35.52062 140.20184 5634 ft 278 kts 332°
2026-04-22 16:53 35.53587 140.18751 5204 ft 275 kts 308°
2026-04-22 16:53 35.54693 140.16901 4882 ft 264 kts 302°
2026-04-22 16:53 35.55666 140.15109 4667 ft 237 kts 301°
2026-04-22 16:53 35.56476 140.13486 4483 ft 210 kts 294°
2026-04-22 16:54 35.56886 140.11916 4396 ft 180 kts 276°
2026-04-22 16:54 35.56975 140.10425 4177 ft 169 kts 269°
2026-04-22 16:54 35.57007 140.09044 3837 ft 160 kts 268°
2026-04-22 16:54 35.57021 140.07697 3427 ft 156 kts 266°
2026-04-22 16:55 35.57024 140.06386 3015 ft 153 kts 266°
2026-04-22 16:55 35.57027 140.05081 2595 ft 151 kts 266°
2026-04-22 16:55 35.57025 140.03801 2172 ft 151 kts 266°
2026-04-22 16:55 35.57024 140.02533 1750 ft 151 kts 268°
2026-04-22 16:56 35.57025 140.01242 1325 ft 151 kts 268°
2026-04-22 16:56 35.57016 139.99966 948 ft 147 kts 269°
2026-04-22 16:56 35.57017 139.98761 578 ft 144 kts 270°
2026-04-22 16:56 35.57015 139.97554 187 ft 142 kts 270°
2026-04-22 16:57 35.57018 139.96426 59 ft 124 kts 270°
2026-04-22 16:57 35.56999 139.95282 246 ft 142 kts 268°
2026-04-22 16:57 35.56953 139.94096 373 ft 140 kts 269°
2026-04-22 16:57 35.56942 139.92897 524 ft 137 kts 270°
2026-04-22 16:58 35.56923 139.91717 924 ft 144 kts 270°
2026-04-22 16:58 35.56942 139.90552 1265 ft 150 kts 272°
2026-04-22 16:58 35.56995 139.89250 1452 ft 147 kts 272°
2026-04-22 16:58 35.57048 139.87990 1120 ft 150 kts 268°
2026-04-22 16:59 35.56934 139.86732 888 ft 145 kts 257°
2026-04-22 16:59 35.56608 139.85584 713 ft 144 kts 245°
2026-04-22 16:59 35.56080 139.84534 564 ft 145 kts 230°
2026-04-22 16:59 35.55343 139.83666 397 ft 148 kts 224°
2026-04-22 17:00 35.54597 139.82828 211 ft 143 kts 225°
2026-04-22 17:00 35.53289 139.81345 29 ft 79 kts 223°
2026-04-22 17:00 35.52994 139.81001 29 ft 37 kts 234°
2026-04-22 17:01 35.52914 139.80803 29 ft 16 kts 247°
2026-04-22 17:01 35.52891 139.80734 29 ft 9 kts 248°
2026-04-22 17:01 35.52876 139.80658 29 ft 9 kts 272°
2026-04-22 17:01 35.52898 139.80588 29 ft 8 kts 319°
2026-04-22 17:02 35.52937 139.80563 29 ft 13 kts 331°
2026-04-22 17:02 35.53097 139.80449 29 ft 31 kts 328°
2026-04-22 17:02 35.53289 139.80319 29 ft 29 kts 330°
2026-04-22 17:02 35.53466 139.80194 29 ft 28 kts 329°
2026-04-22 17:03 35.53631 139.80080 29 ft 22 kts 330°
2026-04-22 17:03 35.53701 139.79953 29 ft 18 kts 259°
2026-04-22 17:03 35.53647 139.79833 29 ft 16 kts 240°
2026-04-22 17:03 35.53592 139.79715 29 ft 15 kts 240°
2026-04-22 17:04 35.53536 139.79597 29 ft 19 kts 239°
2026-04-22 17:04 35.53460 139.79439 29 ft 21 kts 240°
2026-04-22 17:04 35.53387 139.79286 29 ft 20 kts 240°
2026-04-22 17:04 35.53384 139.79147 29 ft 17 kts 315°
2026-04-22 17:05 35.53528 139.79040 29 ft 30 kts 329°
2026-04-22 17:05 35.53718 139.78905 29 ft 28 kts 330°
2026-04-22 17:05 35.53889 139.78786 29 ft 27 kts 329°
2026-04-22 17:05 35.54048 139.78673 29 ft 25 kts 329°
2026-04-22 17:06 35.54202 139.78566 29 ft 24 kts 328°
2026-04-22 17:06 35.54335 139.78470 29 ft 19 kts 329°
2026-04-22 17:06 35.54433 139.78404 29 ft 9 kts 348°
2026-04-22 17:06 35.54474 139.78445 29 ft 7 kts 60°
2026-04-22 17:07 35.54482 139.78464 29 ft 2 kts 60°
2026-04-22 17:07 35.54487 139.78474 29 ft 0 kts 60°